| time (UTC) | temp F | wind direction | speed knots | gust knots | rain 1hr in | rain 24hr in | rain mn in | humidity % | barometer mb |
| 20260507180515 | 60 | 48 | 2.6 | 6.1 | 0.00 | 0.00 | 0.00 | 19 | 1011.5 |
| 20260507180038 | 59 | 67 | 2.6 | 6.1 | 0.00 | 0.00 | 0.00 | 18 | 1011.5 |
| 20260507175515 | 58 | 51 | 1.7 | 8.7 | 0.00 | 0.00 | 0.00 | 17 | 1011.5 |
| 20260507175021 | 58 | 76 | 2.6 | 8.7 | 0.00 | 0.00 | 0.00 | 22 | 1011.6 |
| 20260507174537 | 58 | 64 | 2.6 | 7.8 | 0.00 | 0.00 | 0.00 | 18 | 1011.5 |
| 20260507174019 | 58 | 65 | 3.5 | 7.0 | 0.00 | 0.00 | 0.00 | 19 | 1011.6 |
| 20260507173520 | 57 | 92 | 1.7 | 7.0 | 0.00 | 0.00 | 0.00 | 20 | 1011.6 |
| 20260507173036 | 57 | 17 | 1.7 | 7.0 | 0.00 | 0.00 | 0.00 | 20 | 1011.7 |
| 20260507172519 | 56 | 99 | 3.5 | 6.1 | 0.00 | 0.00 | 0.00 | 20 | 1011.8 |
| 20260507172018 | 56 | 70 | 2.6 | 5.2 | 0.00 | 0.00 | 0.00 | 20 | 1011.8 |
| 20260507171535 | 56 | 58 | 0.0 | 6.1 | 0.00 | 0.00 | 0.00 | 20 | 1011.8 |
| 20260507171018 | 56 | 49 | 2.6 | 6.1 | 0.00 | 0.00 | 0.00 | 20 | 1011.9 |
| 20260507170517 | 55 | 151 | 1.7 | 5.2 | 0.00 | 0.00 | 0.00 | 22 | 1011.9 |
| 20260507170037 | 55 | 147 | 0.9 | 5.2 | 0.00 | 0.00 | 0.00 | 21 | 1012.2 |
| 20260507165519 | 55 | 95 | 2.6 | 5.2 | 0.00 | 0.00 | 0.00 | 25 | 1012.1 |
| 20260507165018 | 54 | 101 | 1.7 | 5.2 | 0.00 | 0.00 | 0.00 | 24 | 1012.1 |
| 20260507164539 | 54 | 90 | 1.7 | 5.2 | 0.00 | 0.00 | 0.00 | 21 | 1012.1 |
| 20260507164019 | 54 | 100 | 0.9 | 3.5 | 0.00 | 0.00 | 0.00 | 23 | 1012.2 |
| 20260507163519 | 54 | 0 | 0.0 | 3.5 | 0.00 | 0.00 | 0.00 | 24 | 1012.2 |
| 20260507163039 | 53 | 104 | 1.7 | 3.5 | 0.00 | 0.00 | 0.00 | 29 | 1012.2 |
| 20260507162518 | 52 | 109 | 0.9 | 3.5 | 0.00 | 0.00 | 0.00 | 25 | 1012.2 |
| 20260507162021 | 51 | 78 | 0.0 | 3.5 | 0.00 | 0.00 | 0.00 | 26 | 1012.3 |
| 20260507161539 | 51 | 73 | 0.9 | 3.5 | 0.00 | 0.00 | 0.00 | 22 | 1012.3 |
| 20260507161019 | 51 | 87 | 0.9 | 3.5 | 0.00 | 0.00 | 0.00 | 22 | 1012.4 |
| 20260507160518 | 51 | 90 | 0.9 | 3.5 | 0.00 | 0.00 | 0.00 | 21 | 1012.3 |
| 20260507160057 | 51 | 65 | 0.9 | 3.5 | 0.00 | 0.00 | 0.00 | 23 | 1012.4 |
| 20260507155521 | 51 | 57 | 0.9 | 3.5 | 0.00 | 0.00 | 0.00 | 26 | 1012.5 |
| 20260507155016 | 51 | 140 | 0.9 | 2.6 | 0.00 | 0.00 | 0.00 | 26 | 1012.4 |
| 20260507154532 | 50 | 0 | 0.0 | 2.6 | 0.00 | 0.00 | 0.00 | 26 | 1012.4 |
| 20260507154020 | 50 | 0 | 0.9 | 3.5 | 0.00 | 0.00 | 0.00 | 25 | 1012.4 |
| 20260507153519 | 51 | 60 | 0.9 | 3.5 | 0.00 | 0.00 | 0.00 | 24 | 1012.4 |
| 20260507153037 | 51 | 61 | 1.7 | 3.5 | 0.00 | 0.00 | 0.00 | 24 | 1012.4 |
| 20260507152515 | 52 | 63 | 0.9 | 2.6 | 0.00 | 0.00 | 0.00 | 24 | 1012.3 |
| 20260507152016 | 52 | 0 | 0.0 | 2.6 | 0.00 | 0.00 | 0.00 | 23 | 1012.2 |
| 20260507151537 | 52 | 58 | 0.9 | 5.2 | 0.00 | 0.00 | 0.00 | 23 | 1012.2 |
| 20260507151015 | 52 | 59 | 0.9 | 5.2 | 0.00 | 0.00 | 0.00 | 22 | 1012.2 |
| 20260507150515 | 53 | 61 | 1.7 | 6.1 | 0.00 | 0.00 | 0.00 | 21 | 1012.2 |
| 20260507150037 | 53 | 360 | 2.6 | 7.8 | 0.00 | 0.00 | 0.00 | 21 | 1012.1 |
| 20260507145517 | 54 | 71 | 2.6 | 7.8 | 0.00 | 0.00 | 0.00 | 21 | 1011.9 |
| 20260507145019 | 54 | 65 | 3.5 | 7.0 | 0.00 | 0.00 | 0.00 | 22 | 1011.9 |
| 20260507144544 | 54 | 69 | 1.7 | 5.2 | 0.00 | 0.00 | 0.00 | 24 | 1011.9 |
| 20260507144018 | 53 | 355 | 0.9 | 2.6 | 0.00 | 0.00 | 0.00 | 23 | 1011.9 |
| 20260507143516 | 52 | 325 | 0.0 | 4.3 | 0.00 | 0.00 | 0.00 | 22 | 1011.9 |
| 20260507143038 | 52 | 0 | 0.9 | 4.3 | 0.00 | 0.00 | 0.00 | 23 | 1012.0 |
| 20260507142516 | 53 | 76 | 1.7 | 5.2 | 0.00 | 0.00 | 0.00 | 22 | 1012.0 |
| 20260507142015 | 53 | 247 | 1.7 | 7.8 | 0.00 | 0.00 | 0.00 | 21 | 1012.1 |
| 20260507141537 | 53 | 216 | 2.6 | 7.8 | 0.00 | 0.00 | 0.00 | 22 | 1012.2 |
| 20260507141021 | 52 | 234 | 0.0 | 1.7 | 0.00 | 0.00 | 0.00 | 26 | 1012.1 |
| 20260507140516 | 51 | 234 | 0.0 | 2.6 | 0.00 | 0.00 | 0.00 | 25 | 1012.1 |
| 20260507140040 | 50 | 0 | 0.0 | 2.6 | 0.00 | 0.00 | 0.00 | 25 | 1012.1 |
| 20260507135518 | 50 | 234 | 0.9 | 2.6 | 0.00 | 0.00 | 0.00 | 26 | 1012.0 |
| 20260507135018 | 49 | 235 | 0.9 | 1.7 | 0.00 | 0.00 | 0.00 | 26 | 1012.1 |
| 20260507134536 | 48 | 235 | 0.0 | 6.1 | 0.00 | 0.00 | 0.00 | 27 | 1011.9 |
| 20260507134019 | 47 | 237 | 0.9 | 6.1 | 0.00 | 0.00 | 0.00 | 27 | 1011.9 |
| 20260507133516 | 47 | 234 | 3.5 | 6.1 | 0.00 | 0.00 | 0.00 | 26 | 1011.9 |
| 20260507133034 | 47 | 237 | 3.5 | 6.1 | 0.00 | 0.00 | 0.00 | 27 | 1011.9 |
| 20260507132516 | 46 | 231 | 3.5 | 6.1 | 0.00 | 0.00 | 0.00 | 27 | 1011.9 |
| 20260507132015 | 46 | 242 | 2.6 | 4.3 | 0.00 | 0.00 | 0.00 | 28 | 1011.9 |
| 20260507131533 | 46 | 237 | 1.7 | 3.5 | 0.00 | 0.00 | 0.00 | 28 | 1011.7 |
| 20260507131019 | 45 | 244 | 0.9 | 3.5 | 0.00 | 0.00 | 0.00 | 28 | 1011.7 |
| 20260507130520 | 45 | 0 | 0.0 | 1.7 | 0.00 | 0.00 | 0.00 | 29 | 1011.6 |
| 20260507130041 | 45 | 0 | 0.0 | 0.9 | 0.00 | 0.00 | 0.00 | 28 | 1011.5 |
| 20260507125521 | 45 | 0 | 0.0 | 1.7 | 0.00 | 0.00 | 0.00 | 28 | 1011.5 |
| 20260507125019 | 45 | 0 | 0.0 | 1.7 | 0.00 | 0.00 | 0.00 | 28 | 1011.4 |
| 20260507124537 | 44 | 276 | 0.9 | 3.5 | 0.00 | 0.00 | 0.00 | 29 | 1011.3 |
| 20260507124019 | 44 | 276 | 1.7 | 3.5 | 0.00 | 0.00 | 0.00 | 29 | 1011.3 |
| 20260507123518 | 43 | 281 | 0.0 | 2.6 | 0.00 | 0.00 | 0.00 | 31 | 1011.2 |
| 20260507123043 | 43 | 282 | 0.9 | 3.5 | 0.00 | 0.00 | 0.00 | 30 | 1011.1 |
| 20260507122518 | 43 | 282 | 0.9 | 5.2 | 0.00 | 0.00 | 0.00 | 28 | 1011.0 |
| 20260507122022 | 43 | 284 | 1.7 | 5.2 | 0.00 | 0.00 | 0.00 | 27 | 1011.0 |
| 20260507121537 | 43 | 279 | 1.7 | 5.2 | 0.00 | 0.00 | 0.00 | 27 | 1011.0 |
| 20260507121016 | 42 | 290 | 3.5 | 7.0 | 0.00 | 0.00 | 0.00 | 27 | 1011.1 |
| 20260507120515 | 41 | 291 | 3.5 | 7.0 | 0.00 | 0.00 | 0.00 | 28 | 1011.1 |
| 20260507120034 | 41 | 282 | 1.7 | 3.5 | 0.00 | 0.00 | 0.00 | 29 | 1011.0 |
| 20260507115516 | 41 | 280 | 1.7 | 3.5 | 0.00 | 0.00 | 0.00 | 28 | 1011.0 |
| 20260507115018 | 40 | 284 | 1.7 | 3.5 | 0.00 | 0.00 | 0.00 | 29 | 1011.0 |
| 20260507114534 | 40 | 281 | 0.9 | 2.6 | 0.00 | 0.00 | 0.00 | 29 | 1011.0 |
| 20260507114019 | 41 | 282 | 0.0 | 3.5 | 0.00 | 0.00 | 0.00 | 27 | 1011.0 |
| 20260507113519 | 42 | 283 | 1.7 | 3.5 | 0.00 | 0.00 | 0.00 | 26 | 1010.9 |
| 20260507113039 | 41 | 283 | 2.6 | 3.5 | 0.00 | 0.00 | 0.00 | 26 | 1010.8 |
| 20260507112518 | 41 | 281 | 2.6 | 3.5 | 0.00 | 0.00 | 0.00 | 27 | 1010.9 |
| 20260507112018 | 41 | 286 | 1.7 | 2.6 | 0.00 | 0.00 | 0.00 | 26 | 1010.8 |
| 20260507111543 | 41 | 287 | 1.7 | 3.5 | 0.00 | 0.00 | 0.00 | 26 | 1010.8 |
| 20260507111016 | 41 | 288 | 1.7 | 3.5 | 0.00 | 0.00 | 0.00 | 26 | 1010.7 |
| 20260507110518 | 41 | 288 | 2.6 | 3.5 | 0.00 | 0.00 | 0.00 | 27 | 1010.7 |
| 20260507110038 | 41 | 285 | 1.7 | 3.5 | 0.00 | 0.00 | 0.00 | 27 | 1010.6 |
| 20260507105515 | 41 | 286 | 1.7 | 3.5 | 0.00 | 0.00 | 0.00 | 27 | 1010.6 |
| 20260507105016 | 41 | 284 | 1.7 | 3.5 | 0.00 | 0.00 | 0.00 | 27 | 1010.7 |
| 20260507104535 | 41 | 277 | 2.6 | 3.5 | 0.00 | 0.00 | 0.00 | 27 | 1010.6 |
| 20260507104020 | 41 | 276 | 1.7 | 5.2 | 0.00 | 0.00 | 0.00 | 27 | 1010.7 |
| 20260507103518 | 41 | 275 | 2.6 | 5.2 | 0.00 | 0.00 | 0.00 | 27 | 1010.6 |
| 20260507103034 | 41 | 288 | 2.6 | 6.1 | 0.00 | 0.00 | 0.00 | 27 | 1010.6 |
| 20260507102518 | 40 | 285 | 3.5 | 6.1 | 0.00 | 0.00 | 0.00 | 27 | 1010.5 |
| 20260507102019 | 40 | 279 | 2.6 | 6.1 | 0.00 | 0.00 | 0.00 | 28 | 1010.6 |
| 20260507101538 | 40 | 281 | 3.5 | 5.2 | 0.00 | 0.00 | 0.00 | 27 | 1010.5 |
| 20260507101023 | 40 | 284 | 2.6 | 5.2 | 0.00 | 0.00 | 0.00 | 27 | 1010.6 |
| 20260507100521 | 40 | 275 | 2.6 | 5.2 | 0.00 | 0.00 | 0.00 | 27 | 1010.5 |
| 20260507100036 | 41 | 284 | 1.7 | 3.5 | 0.00 | 0.00 | 0.00 | 27 | 1010.6 |
| 20260507095516 | 41 | 286 | 1.7 | 3.5 | 0.00 | 0.00 | 0.00 | 26 | 1010.6 |
| 20260507095015 | 41 | 287 | 1.7 | 3.5 | 0.00 | 0.00 | 0.00 | 26 | 1010.6 |
| 20260507094534 | 41 | 288 | 1.7 | 4.3 | 0.00 | 0.00 | 0.00 | 26 | 1010.6 |
| 20260507094015 | 41 | 289 | 2.6 | 4.3 | 0.00 | 0.00 | 0.00 | 26 | 1010.6 |
| 20260507093516 | 41 | 292 | 2.6 | 4.3 | 0.00 | 0.00 | 0.00 | 27 | 1010.7 |
| 20260507093042 | 41 | 288 | 2.6 | 4.3 | 0.00 | 0.00 | 0.00 | 27 | 1010.6 |
| 20260507092517 | 40 | 290 | 2.6 | 3.5 | 0.00 | 0.00 | 0.00 | 27 | 1010.7 |
| 20260507092017 | 40 | 277 | 1.7 | 4.3 | 0.00 | 0.00 | 0.00 | 27 | 1010.6 |
| 20260507091539 | 40 | 290 | 2.6 | 4.3 | 0.00 | 0.00 | 0.00 | 28 | 1010.8 |
| 20260507091019 | 39 | 283 | 1.7 | 5.2 | 0.00 | 0.00 | 0.00 | 28 | 1010.7 |
| 20260507090522 | 38 | 280 | 1.7 | 5.2 | 0.00 | 0.00 | 0.00 | 29 | 1010.7 |
| 20260507090038 | 39 | 0 | 0.0 | 2.6 | 0.00 | 0.00 | 0.00 | 31 | 1010.6 |
| 20260507085519 | 40 | 290 | 0.9 | 3.5 | 0.00 | 0.00 | 0.00 | 30 | 1010.6 |
| 20260507085018 | 40 | 290 | 0.9 | 3.5 | 0.00 | 0.00 | 0.00 | 28 | 1010.6 |
| 20260507084540 | 40 | 286 | 2.6 | 3.5 | 0.00 | 0.00 | 0.00 | 27 | 1010.6 |
| 20260507084019 | 40 | 288 | 0.9 | 3.5 | 0.00 | 0.00 | 0.00 | 28 | 1010.6 |
| 20260507083516 | 40 | 288 | 2.6 | 5.2 | 0.00 | 0.00 | 0.00 | 27 | 1010.5 |
| 20260507083039 | 41 | 283 | 2.6 | 5.2 | 0.00 | 0.00 | 0.00 | 26 | 1010.5 |
| 20260507082516 | 41 | 288 | 1.7 | 5.2 | 0.00 | 0.00 | 0.00 | 26 | 1010.6 |
| 20260507082015 | 41 | 286 | 1.7 | 5.2 | 0.00 | 0.00 | 0.00 | 26 | 1010.6 |
| 20260507081537 | 41 | 286 | 2.6 | 5.2 | 0.00 | 0.00 | 0.00 | 26 | 1010.6 |
| 20260507081016 | 41 | 279 | 2.6 | 5.2 | 0.00 | 0.00 | 0.00 | 26 | 1010.5 |
| 20260507080522 | 41 | 296 | 2.6 | 6.1 | 0.00 | 0.00 | 0.00 | 26 | 1010.6 |
| 20260507080035 | 41 | 284 | 3.5 | 6.1 | 0.00 | 0.00 | 0.00 | 26 | 1010.5 |
| 20260507075515 | 41 | 281 | 1.7 | 4.3 | 0.00 | 0.00 | 0.00 | 26 | 1010.6 |
| 20260507075015 | 41 | 285 | 1.7 | 5.2 | 0.00 | 0.00 | 0.00 | 26 | 1010.7 |
| 20260507074534 | 41 | 284 | 2.6 | 5.2 | 0.00 | 0.00 | 0.00 | 26 | 1010.7 |
| 20260507074016 | 41 | 286 | 3.5 | 5.2 | 0.00 | 0.00 | 0.00 | 27 | 1010.7 |
| 20260507073521 | 40 | 292 | 2.6 | 4.3 | 0.00 | 0.00 | 0.00 | 27 | 1010.7 |
| 20260507073035 | 40 | 278 | 1.7 | 3.5 | 0.00 | 0.00 | 0.00 | 28 | 1010.8 |
| 20260507072518 | 40 | 258 | 1.7 | 3.5 | 0.00 | 0.00 | 0.00 | 28 | 1010.8 |
| 20260507072015 | 40 | 258 | 1.7 | 3.5 | 0.00 | 0.00 | 0.00 | 28 | 1010.9 |
| 20260507071535 | 40 | 259 | 0.9 | 3.5 | 0.00 | 0.00 | 0.00 | 28 | 1010.9 |
| 20260507071016 | 39 | 259 | 1.7 | 3.5 | 0.00 | 0.00 | 0.00 | 28 | 1011.0 |
| 20260507070516 | 40 | 259 | 2.6 | 3.5 | 0.00 | 0.00 | 0.00 | 28 | 1011.0 |
| 20260507070036 | 39 | 265 | 1.7 | 3.5 | 0.00 | 0.00 | 0.00 | 29 | 1011.0 |
| 20260507065515 | 40 | 265 | 2.6 | 3.5 | 0.00 | 0.00 | 0.00 | 28 | 1011.0 |
| 20260507065015 | 40 | 270 | 1.7 | 2.6 | 0.00 | 0.00 | 0.00 | 28 | 1010.9 |
| 20260507064534 | 40 | 271 | 0.9 | 3.5 | 0.00 | 0.00 | 0.00 | 28 | 1011.0 |
| 20260507064016 | 39 | 270 | 1.7 | 3.5 | 0.00 | 0.00 | 0.00 | 28 | 1010.9 |
| 20260507063520 | 40 | 261 | 2.6 | 3.5 | 0.00 | 0.00 | 0.00 | 29 | 1010.9 |
| 20260507063033 | 40 | 276 | 0.9 | 2.6 | 0.00 | 0.00 | 0.00 | 27 | 1010.9 |
| 20260507062519 | 41 | 276 | 0.9 | 4.3 | 0.00 | 0.00 | 0.00 | 27 | 1011.0 |
| 20260507062018 | 42 | 282 | 1.7 | 5.2 | 0.00 | 0.00 | 0.00 | 26 | 1011.2 |
| 20260507061537 | 41 | 287 | 2.6 | 7.0 | 0.00 | 0.00 | 0.00 | 26 | 1011.2 |
| 20260507061018 | 42 | 262 | 3.5 | 7.0 | 0.00 | 0.00 | 0.00 | 26 | 1011.2 |
| 20260507060516 | 41 | 292 | 3.5 | 7.0 | 0.00 | 0.00 | 0.00 | 27 | 1011.2 |
| 20260507060036 | 41 | 281 | 2.6 | 5.2 | 0.00 | 0.00 | 0.00 | 27 | 1011.3 |
| 20260507055517 | 41 | 269 | 2.6 | 5.2 | 0.00 | 0.00 | 0.00 | 28 | 1011.3 |
| 20260507055017 | 41 | 275 | 1.7 | 6.1 | 0.00 | 0.00 | 0.00 | 28 | 1011.3 |
| 20260507054541 | 41 | 281 | 3.5 | 6.1 | 0.00 | 0.00 | 0.00 | 26 | 1011.4 |
| 20260507054020 | 42 | 273 | 2.6 | 5.2 | 0.00 | 0.00 | 0.00 | 26 | 1011.4 |
| 20260507053516 | 42 | 273 | 2.6 | 6.1 | 0.00 | 0.00 | 0.00 | 26 | 1011.4 |
| 20260507053038 | 42 | 281 | 2.6 | 6.1 | 0.00 | 0.00 | 0.00 | 26 | 1011.3 |
| 20260507052519 | 41 | 287 | 2.6 | 6.1 | 0.00 | 0.00 | 0.00 | 26 | 1011.4 |
| 20260507052018 | 41 | 270 | 2.6 | 3.5 | 0.00 | 0.00 | 0.00 | 27 | 1011.3 |
| 20260507051538 | 42 | 277 | 1.7 | 3.5 | 0.00 | 0.00 | 0.00 | 26 | 1011.4 |
| 20260507051016 | 41 | 281 | 1.7 | 3.5 | 0.00 | 0.00 | 0.00 | 26 | 1011.4 |
| 20260507050516 | 42 | 263 | 1.7 | 3.5 | 0.00 | 0.00 | 0.00 | 27 | 1011.5 |
| 20260507050040 | 41 | 261 | 1.7 | 3.5 | 0.00 | 0.00 | 0.00 | 27 | 1011.5 |
| 20260507045519 | 41 | 263 | 2.6 | 3.5 | 0.00 | 0.00 | 0.00 | 27 | 1011.5 |
| 20260507045016 | 42 | 263 | 1.7 | 3.5 | 0.00 | 0.00 | 0.00 | 26 | 1011.5 |
| 20260507044534 | 41 | 263 | 0.9 | 3.5 | 0.00 | 0.00 | 0.00 | 27 | 1011.5 |
| 20260507044015 | 41 | 263 | 0.9 | 3.5 | 0.00 | 0.00 | 0.00 | 28 | 1011.6 |
| 20260507043524 | 41 | 264 | 1.7 | 3.5 | 0.00 | 0.00 | 0.00 | 27 | 1011.5 |
| 20260507043032 | 41 | 263 | 1.7 | 3.5 | 0.00 | 0.00 | 0.00 | 28 | 1011.6 |
| 20260507042520 | 42 | 266 | 1.7 | 5.2 | 0.00 | 0.00 | 0.00 | 27 | 1011.6 |
| 20260507042019 | 42 | 271 | 2.6 | 5.2 | 0.00 | 0.00 | 0.00 | 27 | 1011.6 |
| 20260507041550 | 43 | 306 | 0.9 | 2.6 | 0.00 | 0.00 | 0.00 | 26 | 1011.6 |
| 20260507041018 | 43 | 309 | 0.0 | 2.6 | 0.00 | 0.00 | 0.00 | 25 | 1011.8 |
| 20260507040522 | 44 | 313 | 0.9 | 3.5 | 0.00 | 0.00 | 0.00 | 24 | 1011.8 |
| 20260507040038 | 45 | 333 | 1.7 | 3.5 | 0.00 | 0.00 | 0.00 | 23 | 1011.8 |
| 20260507035519 | 46 | 348 | 1.7 | 2.6 | 0.00 | 0.00 | 0.00 | 22 | 1011.8 |
| 20260507035019 | 46 | 351 | 0.9 | 2.6 | 0.00 | 0.00 | 0.00 | 21 | 1011.8 |
| 20260507034537 | 47 | 355 | 0.0 | 3.5 | 0.00 | 0.00 | 0.00 | 20 | 1011.9 |
| 20260507034017 | 47 | 355 | 0.9 | 3.5 | 0.00 | 0.00 | 0.00 | 20 | 1011.9 |
| 20260507033516 | 47 | 283 | 1.7 | 3.5 | 0.00 | 0.00 | 0.00 | 20 | 1011.9 |
| 20260507033037 | 47 | 265 | 2.6 | 3.5 | 0.00 | 0.00 | 0.00 | 20 | 1011.8 |
| 20260507032519 | 47 | 265 | 0.0 | 2.6 | 0.00 | 0.00 | 0.00 | 20 | 1011.9 |
| 20260507032015 | 47 | 265 | 0.9 | 2.6 | 0.00 | 0.00 | 0.00 | 19 | 1011.8 |
| 20260507031534 | 47 | 265 | 0.0 | 0.9 | 0.00 | 0.00 | 0.00 | 20 | 1012.1 |
| 20260507031016 | 47 | 265 | 0.0 | 0.9 | 0.00 | 0.00 | 0.00 | 20 | 1012.2 |
| 20260507030516 | 47 | 0 | 0.0 | 0.9 | 0.00 | 0.00 | 0.00 | 21 | 1012.2 |
| 20260507030038 | 48 | 0 | 0.0 | 0.9 | 0.00 | 0.00 | 0.00 | 19 | 1012.3 |
| 20260507025520 | 47 | 0 | 0.0 | 0.9 | 0.00 | 0.00 | 0.00 | 20 | 1012.3 |
| 20260507025015 | 48 | 0 | 0.0 | 0.9 | 0.00 | 0.00 | 0.00 | 20 | 1012.2 |
| 20260507024532 | 48 | 0 | 0.0 | 0.9 | 0.00 | 0.00 | 0.00 | 21 | 1012.3 |
| 20260507024021 | 48 | 0 | 0.0 | 0.0 | 0.00 | 0.00 | 0.00 | 20 | 1012.2 |
| 20260507023516 | 48 | 0 | 0.0 | 0.0 | 0.00 | 0.00 | 0.00 | 19 | 1012.3 |
| 20260507023037 | 48 | 0 | 0.0 | 0.0 | 0.00 | 0.00 | 0.00 | 18 | 1012.4 |
| 20260507022519 | 49 | 0 | 0.0 | 0.9 | 0.00 | 0.00 | 0.00 | 18 | 1012.4 |
| 20260507022016 | 49 | 0 | 0.0 | 0.9 | 0.00 | 0.00 | 0.00 | 18 | 1012.4 |
| 20260507021535 | 49 | 0 | 0.0 | 0.9 | 0.00 | 0.00 | 0.00 | 18 | 1012.4 |
| 20260507021016 | 49 | 0 | 0.0 | 0.9 | 0.00 | 0.00 | 0.00 | 17 | 1012.5 |
| 20260507020516 | 49 | 0 | 0.0 | 0.9 | 0.00 | 0.00 | 0.00 | 17 | 1012.5 |
| 20260507020035 | 49 | 0 | 0.0 | 0.0 | 0.00 | 0.00 | 0.00 | 16 | 1012.4 |
| 20260507015515 | 50 | 0 | 0.0 | 0.9 | 0.00 | 0.00 | 0.00 | 16 | 1012.5 |
| 20260507015019 | 50 | 0 | 0.0 | 0.9 | 0.00 | 0.00 | 0.00 | 16 | 1012.5 |
| 20260507014548 | 50 | 0 | 0.0 | 2.6 | 0.00 | 0.00 | 0.00 | 15 | 1012.5 |
| 20260507014016 | 50 | 0 | 0.0 | 2.6 | 0.00 | 0.00 | 0.00 | 15 | 1012.5 |
| 20260507013515 | 50 | 264 | 0.9 | 5.2 | 0.00 | 0.00 | 0.00 | 15 | 1012.5 |
| 20260507013043 | 50 | 0 | 0.9 | 5.2 | 0.00 | 0.00 | 0.00 | 15 | 1012.5 |
| 20260507012520 | 51 | 246 | 0.9 | 7.0 | 0.00 | 0.00 | 0.00 | 15 | 1012.4 |
| 20260507012018 | 51 | 246 | 1.7 | 7.0 | 0.00 | 0.00 | 0.00 | 14 | 1012.4 |
| 20260507011540 | 51 | 234 | 1.7 | 7.0 | 0.00 | 0.00 | 0.00 | 14 | 1012.5 |
| 20260507011016 | 51 | 270 | 1.7 | 7.0 | 0.00 | 0.00 | 0.00 | 14 | 1012.5 |
| 20260507010519 | 51 | 267 | 1.7 | 6.1 | 0.00 | 0.00 | 0.00 | 14 | 1012.5 |
| 20260507010035 | 51 | 238 | 2.6 | 7.8 | 0.00 | 0.00 | 0.00 | 14 | 1012.4 |
| 20260507005518 | 52 | 262 | 1.7 | 7.8 | 0.00 | 0.00 | 0.00 | 14 | 1012.5 |
| 20260507005018 | 52 | 277 | 3.5 | 7.8 | 0.00 | 0.00 | 0.00 | 12 | 1012.5 |
| 20260507004536 | 52 | 225 | 1.7 | 7.0 | 0.00 | 0.00 | 0.00 | 13 | 1012.5 |
| 20260507004016 | 52 | 271 | 1.7 | 7.8 | 0.00 | 0.00 | 0.00 | 13 | 1012.7 |
| 20260507003516 | 52 | 270 | 3.5 | 9.6 | 0.00 | 0.00 | 0.00 | 13 | 1012.7 |
| 20260507003034 | 52 | 214 | 5.2 | 9.6 | 0.00 | 0.00 | 0.00 | 13 | 1012.7 |
| 20260507002516 | 52 | 267 | 5.2 | 8.7 | 0.00 | 0.00 | 0.00 | 13 | 1012.7 |
| 20260507002019 | 52 | 266 | 3.5 | 10.4 | 0.00 | 0.00 | 0.00 | 12 | 1012.7 |
| 20260507001549 | 53 | 229 | 5.2 | 10.4 | 0.00 | 0.00 | 0.00 | 12 | 1012.7 |
| 20260507001018 | 53 | 270 | 4.3 | 9.6 | 0.00 | 0.00 | 0.00 | 12 | 1012.8 |
| 20260507000523 | 53 | 284 | 4.3 | 9.6 | 0.00 | 0.00 | 0.00 | 13 | 1012.9 |
| 20260507000037 | 52 | 261 | 4.3 | 9.6 | 0.00 | 0.00 | 0.00 | 12 | 1012.8 |
| 20260506235515 | 52 | 223 | 4.3 | 11.3 | 0.00 | 0.00 | 0.00 | 13 | 1013.0 |
| 20260506235016 | 52 | 262 | 5.2 | 11.3 | 0.00 | 0.00 | 0.00 | 12 | 1013.0 |
| 20260506234536 | 52 | 252 | 3.5 | 9.6 | 0.00 | 0.00 | 0.00 | 12 | 1013.0 |
| 20260506234019 | 52 | 260 | 3.5 | 9.6 | 0.00 | 0.00 | 0.00 | 12 | 1013.0 |
| 20260506233516 | 52 | 238 | 2.6 | 7.0 | 0.00 | 0.00 | 0.00 | 12 | 1013.0 |
| 20260506233043 | 52 | 0 | 2.6 | 12.2 | 0.00 | 0.00 | 0.00 | 13 | 1013.1 |
| 20260506232522 | 52 | 340 | 2.6 | 12.2 | 0.00 | 0.00 | 0.00 | 12 | 1013.3 |
| 20260506232015 | 52 | 244 | 4.3 | 12.2 | 0.00 | 0.00 | 0.00 | 12 | 1013.2 |
| 20260506231541 | 52 | 284 | 5.2 | 12.2 | 0.00 | 0.00 | 0.00 | 12 | 1013.4 |
| 20260506231019 | 52 | 282 | 3.5 | 11.3 | 0.00 | 0.00 | 0.00 | 14 | 1013.5 |
| 20260506230515 | 52 | 277 | 6.1 | 13.9 | 0.00 | 0.00 | 0.00 | 12 | 1013.6 |
| 20260506230034 | 53 | 261 | 5.2 | 13.9 | 0.00 | 0.00 | 0.00 | 11 | 1013.6 |
| 20260506225521 | 53 | 247 | 2.6 | 11.3 | 0.00 | 0.00 | 0.00 | 13 | 1013.7 |
| 20260506225020 | 53 | 237 | 5.2 | 14.8 | 0.00 | 0.00 | 0.00 | 13 | 1013.8 |
| 20260506224537 | 53 | 272 | 3.5 | 14.8 | 0.00 | 0.00 | 0.00 | 12 | 1013.9 |
| 20260506224016 | 53 | 298 | 3.5 | 11.3 | 0.00 | 0.00 | 0.00 | 12 | 1013.8 |
| 20260506223518 | 53 | 267 | 6.1 | 13.0 | 0.00 | 0.00 | 0.00 | 12 | 1013.9 |
| 20260506223038 | 53 | 250 | 5.2 | 13.9 | 0.00 | 0.00 | 0.00 | 13 | 1014.0 |
| 20260506222517 | 54 | 232 | 6.1 | 13.9 | 0.00 | 0.00 | 0.00 | 13 | 1014.0 |
| 20260506222016 | 53 | 273 | 2.6 | 12.2 | 0.00 | 0.00 | 0.00 | 15 | 1014.0 |
| 20260506221537 | 53 | 268 | 7.0 | 12.2 | 0.00 | 0.00 | 0.00 | 14 | 1014.1 |
| 20260506221019 | 53 | 230 | 6.1 | 10.4 | 0.00 | 0.00 | 0.00 | 13 | 1014.0 |
| 20260506220519 | 53 | 268 | 3.5 | 10.4 | 0.00 | 0.00 | 0.00 | 16 | 1014.0 |
| 20260506220036 | 53 | 213 | 5.2 | 10.4 | 0.00 | 0.00 | 0.00 | 16 | 1014.2 |
| 20260506215517 | 53 | 242 | 5.2 | 15.6 | 0.00 | 0.00 | 0.00 | 16 | 1014.3 |
| 20260506215015 | 52 | 275 | 5.2 | 15.6 | 0.00 | 0.00 | 0.00 | 15 | 1014.4 |
| 20260506214532 | 52 | 305 | 6.1 | 15.6 | 0.00 | 0.00 | 0.00 | 15 | 1014.6 |
| 20260506214016 | 52 | 269 | 7.8 | 13.9 | 0.00 | 0.00 | 0.00 | 14 | 1014.6 |
| 20260506213518 | 52 | 273 | 8.7 | 13.0 | 0.00 | 0.00 | 0.00 | 15 | 1014.7 |
| 20260506213036 | 52 | 263 | 6.1 | 14.8 | 0.00 | 0.00 | 0.00 | 15 | 1014.8 |
| 20260506212518 | 53 | 282 | 7.8 | 18.2 | 0.00 | 0.00 | 0.00 | 13 | 1014.9 |
| 20260506212018 | 52 | 241 | 8.7 | 18.2 | 0.00 | 0.00 | 0.00 | 15 | 1015.0 |
| 20260506211531 | 52 | 304 | 3.5 | 12.2 | 0.00 | 0.00 | 0.00 | 14 | 1015.1 |
| 20260506211018 | 52 | 304 | 3.5 | 12.2 | 0.00 | 0.00 | 0.00 | 15 | 1015.1 |
| 20260506210517 | 51 | 328 | 5.2 | 13.9 | 0.00 | 0.00 | 0.00 | 14 | 1015.1 |
| 20260506210040 | 51 | 286 | 4.3 | 13.9 | 0.00 | 0.00 | 0.00 | 15 | 1015.3 |
| 20260506205519 | 51 | 310 | 4.3 | 14.8 | 0.00 | 0.00 | 0.00 | 15 | 1015.2 |
| 20260506205018 | 51 | 253 | 7.8 | 14.8 | 0.00 | 0.00 | 0.00 | 15 | 1015.5 |
| 20260506204536 | 52 | 281 | 4.3 | 12.2 | 0.00 | 0.00 | 0.00 | 15 | 1015.5 |
| 20260506204018 | 51 | 250 | 3.5 | 14.8 | 0.00 | 0.00 | 0.00 | 14 | 1015.5 |
| 20260506203518 | 51 | 299 | 3.5 | 14.8 | 0.00 | 0.00 | 0.00 | 17 | 1015.6 |
| 20260506203042 | 51 | 286 | 6.1 | 13.0 | 0.00 | 0.00 | 0.00 | 15 | 1015.7 |
| 20260506202520 | 51 | 51 | 2.6 | 13.0 | 0.00 | 0.00 | 0.00 | 19 | 1015.6 |
| 20260506202020 | 51 | 292 | 5.2 | 11.3 | 0.00 | 0.00 | 0.00 | 16 | 1015.8 |
| 20260506201534 | 51 | 271 | 4.3 | 17.4 | 0.00 | 0.00 | 0.00 | 16 | 1015.7 |
| 20260506201018 | 51 | 303 | 4.3 | 17.4 | 0.00 | 0.00 | 0.00 | 15 | 1015.9 |
| 20260506200518 | 52 | 318 | 6.1 | 13.0 | 0.00 | 0.00 | 0.00 | 14 | 1016.0 |
| 20260506200042 | 52 | 262 | 2.6 | 9.6 | 0.00 | 0.00 | 0.00 | 15 | 1016.0 |
| 20260506195518 | 51 | 254 | 1.7 | 12.2 | 0.00 | 0.00 | 0.00 | 19 | 1016.1 |
| 20260506195018 | 51 | 252 | 6.1 | 13.9 | 0.00 | 0.00 | 0.00 | 17 | 1016.1 |
| 20260506194539 | 50 | 288 | 3.5 | 13.9 | 0.00 | 0.00 | 0.00 | 20 | 1016.1 |
| 20260506194018 | 50 | 277 | 6.1 | 13.9 | 0.00 | 0.00 | 0.00 | 18 | 1016.2 |
| 20260506193520 | 50 | 271 | 4.3 | 13.0 | 0.00 | 0.00 | 0.00 | 18 | 1016.2 |
| 20260506193036 | 50 | 301 | 6.1 | 13.0 | 0.00 | 0.00 | 0.00 | 19 | 1016.3 |
| 20260506192519 | 49 | 277 | 4.3 | 12.2 | 0.00 | 0.00 | 0.00 | 18 | 1016.4 |
| 20260506192019 | 49 | 212 | 2.6 | 11.3 | 0.00 | 0.00 | 0.00 | 19 | 1016.4 |
| 20260506191535 | 49 | 338 | 6.1 | 11.3 | 0.00 | 0.00 | 0.00 | 17 | 1016.7 |
| 20260506191019 | 49 | 105 | 1.7 | 10.4 | 0.00 | 0.00 | 0.00 | 22 | 1016.7 |
| 20260506190519 | 49 | 244 | 5.2 | 11.3 | 0.00 | 0.00 | 0.00 | 18 | 1017.0 |
| 20260506190038 | 50 | 257 | 3.5 | 13.0 | 0.00 | 0.00 | 0.00 | 19 | 1017.1 |
| 20260506185518 | 49 | 98 | 3.5 | 13.0 | 0.00 | 0.00 | 0.00 | 17 | 1017.1 |
| 20260506185020 | 49 | 306 | 5.2 | 12.2 | 0.00 | 0.00 | 0.00 | 17 | 1017.3 |
| 20260506184536 | 48 | 56 | 3.5 | 14.8 | 0.00 | 0.00 | 0.00 | 18 | 1017.3 |
| 20260506184019 | 48 | 56 | 4.3 | 14.8 | 0.00 | 0.00 | 0.00 | 18 | 1017.4 |
| 20260506183519 | 49 | 247 | 3.5 | 9.6 | 0.00 | 0.00 | 0.00 | 20 | 1017.4 |
| 20260506183037 | 48 | 265 | 2.6 | 10.4 | 0.00 | 0.00 | 0.00 | 19 | 1017.4 |
| 20260506182518 | 48 | 64 | 3.5 | 11.3 | 0.00 | 0.00 | 0.00 | 18 | 1017.5 |
| 20260506182018 | 47 | 79 | 3.5 | 11.3 | 0.00 | 0.00 | 0.00 | 18 | 1017.6 |
| 20260506181537 | 47 | 297 | 5.2 | 11.3 | 0.00 | 0.00 | 0.00 | 19 | 1017.6 |
| 20260506181018 | 47 | 247 | 3.5 | 11.3 | 0.00 | 0.00 | 0.00 | 19 | 1017.7 |